Location: Bangkok
(13.7500°N, 100.5170°E)
Time: 07:12:15
(UTC+07:00)

Hubble Space Telescope - Visible Passes

Search period start: 23 January 2018 00:00
Search period end: 02 February 2018 00:00
Orbit: 537 x 541 km, 28.5° (Epoch: 22 January)

Date Brightness Start Highest point End Pass type
(mag) Time Alt. Az. Time Alt. Az. Time Alt. Az.
23 Jan 3.0 19:49:22 10° NW 19:51:27 14° NNW 19:51:27 14° NNW visible
24 Jan 3.1 19:39:43 10° NW 19:41:36 13° N 19:41:51 13° N visible
25 Jan 3.1 19:30:08 10° NNW 19:31:32 11° N 19:32:15 11° N visible
26 Jan 3.2 19:20:36 10° NNW 19:21:29 11° N 19:22:22 10° N visible
27 Jan 3.2 19:11:16 10° N 19:11:26 10° N 19:11:36 10° N visible
29 Jan 3.2 18:51:08 10° N 18:51:21 10° N 18:51:34 10° N visible
30 Jan 3.1 18:40:24 10° N 18:41:18 11° N 18:42:12 10° NNE visible
31 Jan 3.3 20:09:39 10° NW 20:10:22 14° NNW 20:10:22 14° NNW visible
01 Feb 2.6 19:59:14 10° NW 20:01:02 21° NNW 20:01:02 21° NNW visible
